FW6870 Weather Reports


Display with metric or nautical units.
time (UTC)temp
F
wind
direction
speed
MPH
gust
MPH
rain 1hr
in
rain 24hr
in
rain mn
in
humidity
%
barometer
mb
20260905093034 75 309 3.0 5.0 0.00 0.00 0.00 93 1015.1
20260905084534 76 277 6.0 8.0 0.00 0.00 0.00 93 1015.1
20260905083034 76 288 4.0 7.0 0.00 0.00 0.00 93 1015.1
20260905074537 77 279 2.0 6.0 0.00 0.00 0.00 91 1015.5
20260905073035 78 242 3.0 4.0 0.00 0.00 0.00 90 1015.5
20260905071534 78 0 0.0 0.0 0.00 0.00 0.00 90 1015.6
20260905063034 78 154 2.0 6.0 0.00 0.00 0.00 89 1015.7
20260905061532 80 155 3.0 6.0 0.00 0.00 0.00 84 1015.7
20260905060048 80 15 4.0 5.0 0.00 0.00 0.00 85 1015.6
20260905053036 80 331 3.0 5.0 0.00 0.00 0.00 86 1015.8
20260905051548 81 298 3.0 5.0 0.00 0.00 0.00 84 1015.8
20260905050039 82 280 4.0 6.0 0.00 0.00 0.00 82 1015.8
20260905043038 84 239 3.0 6.0 0.00 0.00 0.00 74 1016.0
20260905041536 85 199 3.0 5.0 0.00 0.00 0.00 69 1016.3
20260905034539 85 126 0.0 3.0 0.00 0.00 0.00 73 1016.5
20260905033035 85 95 1.0 3.0 0.00 0.00 0.00 76 1016.5
20260905030035 85 67 4.0 6.0 0.00 0.00 0.00 75 1016.7
20260905024534 86 72 5.0 8.0 0.00 0.00 0.00 74 1016.7
20260905023035 86 67 5.0 7.0 0.00 0.00 0.00 74 1016.9
20260905020048 86 79 4.0 5.0 0.00 0.00 0.00 74 1016.7
20260905014537 87 63 4.0 5.0 0.00 0.00 0.00 72 1016.8
20260905010039 89 45 3.0 6.0 0.00 0.00 0.00 65 1016.6
20260905004535 90 45 3.0 6.0 0.00 0.00 0.00 62 1016.5
20260905000039 91 173 4.0 6.0 0.00 0.00 0.00 55 1016.0
20260904234536 91 167 4.0 5.0 0.00 0.00 0.00 55 1015.9
20260904233050 92 76 1.0 3.0 0.00 0.00 0.00 55 1015.8
20260904223037 94 165 3.0 7.0 0.00 0.00 0.00 51 1015.5
20260904221535 94 168 1.0 5.0 0.00 0.00 0.00 51 1015.6
20260904214535 94 199 2.0 7.0 0.00 0.00 0.00 50 1015.6
20260904211533 94 155 7.0 13.0 0.00 0.00 0.00 50 1015.7
20260904210037 94 143 3.0 7.0 0.00 0.00 0.00 52 1015.7
20260904201542 94 165 4.0 9.0 0.00 0.00 0.00 52 1016.2
20260904200036 93 167 5.0 11.0 0.00 0.00 0.00 53 1016.3
20260904194536 94 156 5.0 11.0 0.00 0.00 0.00 53 1016.6
20260904193035 93 150 5.0 12.0 0.00 0.00 0.00 51 1017.1
20260904191539 93 126 4.0 9.0 0.00 0.00 0.00 54 1017.4
20260904190035 92 121 5.0 11.0 0.00 0.00 0.00 54 1017.8
20260904184541 92 142 7.0 12.0 0.00 0.00 0.00 54 1017.6
20260904181539 92 163 3.0 9.0 0.00 0.00 0.00 56 1017.8
20260904180043 91 184 3.0 8.0 0.00 0.00 0.00 60 1018.1
20260904171543 90 244 2.0 5.0 0.00 0.00 0.00 64 1018.4
20260904170034 90 73 3.0 8.0 0.00 0.00 0.00 65 1018.6
20260904164534 89 191 2.0 4.0 0.00 0.00 0.00 66 1018.7
20260904163042 89 163 2.0 5.0 0.00 0.00 0.00 66 1018.9
20260904161535 89 108 1.0 5.0 0.00 0.00 0.00 68 1019.1
20260904160036 88 192 2.0 6.0 0.00 0.00 0.00 68 1019.3
20260904154536 87 211 1.0 4.0 0.00 0.00 0.00 70 1019.3
20260904153045 86 218 3.0 8.0 0.00 0.00 0.00 71 1019.2
20260904144538 83 177 2.0 8.0 0.00 0.00 0.00 78 1019.3
20260904134536 80 120 5.0 9.0 0.00 0.00 0.00 83 1019.2
20260904124546 77 360 3.0 8.0 0.00 0.00 0.00 90 1019.0
20260904114541 76 100 6.0 9.0 0.00 0.00 0.00 89 1019.0
20260904100034 77 360 4.0 7.0 0.00 0.00 0.00 83 1018.3